Location: Laporte
(40.6264°N, 105.1378°W)
Time: 15:12:41
(UTC+00:00)

Envisat - Pass Details

Date: 22 August 2022
Orbit: 764 x 765 km, 98.2° (Epoch: 26 September)

Event Time Altitude Azimuth Distance (km) Brightness Sun altitude
Rises 10:08:33 0° 32° (NNE) 3,237 7.5 -22.4°
Reaches altitude 10° 10:11:53 10° 55° (NE) 2,305 6.6 -21.9°
Maximum altitude 10:14:48 15° 91° (E) 1,959 5.7 -21.5°
Drops below altitude 10° 10:17:42 10° 126° (SE) 2,295 5.6 -21.1°
Sets 10:20:58 0° 149° (SSE) 3,215 6.2 -20.6°
